Powrót do katalogu

NOAA 17 DEB

AktywnyPO
NORAD 48718·DEBRIS·🇺🇸 United States

Wystrzelony Jun 24, 2002 z Vandenberg Space Force Base

Loading…

Następne Przeloty (najbliższe 24 godziny)

TLE

ŚwieżeSource: Space-Track

Epoka: Sep 14, 2026, 11:05 UTC

1 48718U 02032BB  26257.46187489  .00006380  00000-0  11997-2 0  9990
2 48718  98.9565 333.7555 0015153 230.8934 129.0920 14.64954053289268

Śledź NOAA 17 DEB w czasie rzeczywistym z AllMySat

Download on the App Store